Flag for Monaco Weather past 2 weeks in Monaco, Monaco

Now
72 °F

Clear.


Feels Like: 71 °F
Forecast: 66 / 77 °F
Wind: No wind

Location: Nice Airport

Current Time: Aug 31, 2014 at 12:56:03 AM

Latest Report: Aug 31, 2014 at 12:00 AM


Visibility: 10 mi

Pressure: 29.95 "Hg

Humidity: 83%

Dew point: 66 °F

Location of MonacoLocation

Historic Weather in Monaco — Graph

°F

Monaco temperature yesterday

Maximum temperature yesterday: 77 °F (at 10:00 AM)
Minimum temperature yesterday: 70 °F (at 2:00 AM)
Average temperature yesterday: 74 °F

Past Weeks' High & Low Weather Summary

 TemperatureHumidityPressure
High88 °F (Aug 23, 3:09 PM)89% (Aug 19, 10:00 PM)30.07 "Hg (Aug 19, 10:00 PM)
Low64 °F (Aug 17, 5:30 AM)31% (Aug 23, 3:09 PM)29.74 "Hg (Aug 27, 3:54 AM)
Average73 °F67%29.93 "Hg
* Reported Aug 15 11:00 PM — Aug 30 11:30 PM, Monaco, Weather by CustomWeather, © 2014

Note: Actual official high and low records may vary slightly from our data, if they occured in-between our weather recording intervals... More about our weather records

Advertising

Monaco weather history for previous 24 hours

 ConditionsComfort  
Time TempWeatherWind HumidityBarometerVisibility
11:30 PM
Aug 30
72 °FClear.2 mph88%29.95 "Hg10 mi
10:30 PM73 °FClear.3 mph83%29.95 "Hg10 mi
10:00 PM73 °FClear.2 mph83%29.95 "Hg10 mi
9:30 PM73 °FClear.2 mph83%29.95 "Hg10 mi
9:00 PM73 °FSunny.2 mph83%29.95 "Hg10 mi
8:30 PM73 °FPartly sunny.2 mph83%29.95 "HgN/A
8:00 PM73 °FPartly sunny.2 mph83%29.95 "HgN/A
7:30 PM75 °FPartly sunny.2 mph78%29.95 "HgN/A
7:00 PM75 °FPartly sunny.2 mph78%29.95 "HgN/A
6:30 PM75 °FPartly sunny.3 mph78%29.95 "HgN/A
6:00 PM75 °FPartly sunny.3 mph78%29.95 "HgN/A
5:30 PM75 °FPartly sunny.3 mph78%29.95 "HgN/A
5:00 PM75 °FPartly sunny.3 mph78%29.95 "HgN/A
4:30 PM75 °FPartly sunny.3 mph78%29.98 "HgN/A
4:00 PM77 °FPartly sunny.5 mph74%29.98 "HgN/A
3:30 PM77 °FPartly sunny.6 mph74%29.98 "HgN/A
3:00 PM77 °FScattered clouds.6 mph74%29.98 "HgN/A
2:30 PM77 °FScattered clouds.6 mph79%30.01 "HgN/A
2:00 PM77 °FScattered clouds.6 mph79%30.01 "HgN/A
1:30 PM77 °FScattered clouds.6 mph69%30.01 "HgN/A
1:00 PM77 °FScattered clouds.6 mph69%30.01 "HgN/A
12:30 PM77 °FScattered clouds.7 mph69%30.01 "HgN/A
12:00 PM77 °FScattered clouds.6 mph69%30.01 "HgN/A
11:30 AM77 °FScattered clouds.5 mph74%30.01 "HgN/A
11:00 AM77 °FScattered clouds.6 mph74%30.01 "HgN/A
10:30 AM77 °FScattered clouds.6 mph74%30.01 "HgN/A
10:00 AM77 °FScattered clouds.3 mph69%30.01 "HgN/A
9:30 AM75 °FScattered clouds.3 mph61%30.01 "HgN/A
9:00 AM73 °FScattered clouds.7 mph65%30.01 "HgN/A
8:30 AM72 °FScattered clouds.9 mph65%30.01 "HgN/A
8:00 AM70 °FScattered clouds.10 mph73%30.01 "HgN/A
7:30 AM70 °FPassing clouds.9 mph73%29.98 "HgN/A
7:00 AM70 °FClear.8 mph73%29.98 "Hg10 mi
6:30 AM70 °FPassing clouds.8 mph73%29.98 "HgN/A
6:00 AM70 °FPassing clouds.7 mph73%29.98 "HgN/A
5:30 AM70 °FPassing clouds.7 mph73%29.98 "HgN/A
5:00 AM70 °FClear.6 mph73%29.98 "Hg10 mi
4:30 AM70 °FClear.5 mph78%29.98 "Hg10 mi
4:00 AM70 °FClear.6 mph78%29.98 "Hg10 mi
3:30 AM70 °FClear.6 mph78%29.98 "Hg10 mi
3:00 AM70 °FClear.7 mph78%29.98 "Hg10 mi
2:30 AM70 °FClear.6 mph83%30.01 "Hg10 mi
2:00 AM70 °FClear.7 mph83%30.01 "Hg10 mi
1:30 AM72 °FClear.3 mph78%30.01 "Hg10 mi
1:00 AM72 °FClear.No wind78%30.01 "Hg10 mi
12:30 AM72 °FClear.5 mph78%30.01 "Hg10 mi
12:00 AM73 °FClear.2 mph78%30.01 "Hg10 mi
Weather by CustomWeather, © 2014

See weather overviewHow to use our weather pages